SQ2CET-13 Weather Reports


time (UTC)temp
C
wind
direction
speed
KPH
gust
KPH
rain 1hr
cm
rain 24hr
cm
rain mn
cm
humidity
%
barometer
mb
20260831231107 16 47 0.0 3.2 0.00 0.00 0.00 84 1011.9
20260831230025 16 0.0 0.0 0.00 0.00 0.00 84 1011.9
20260831225049 16 121 0.0 3.2 0.00 0.00 0.00 84 1012.0
20260831224134 16 0.0 3.2 0.00 0.00 0.00 83 1012.3
20260831223034 16 83 0.0 3.2 0.00 0.00 0.00 84 1012.6
20260831222058 17 331 0.0 4.8 0.00 0.00 0.00 83 1012.7
20260831221018 16 0.0 0.0 0.00 0.00 0.00 84 1012.6
20260831220042 16 0.0 3.2 0.00 0.00 0.00 84 1012.6
20260831215127 16 323 1.6 4.8 0.00 0.00 0.00 83 1012.6
20260831214026 16 279 4.8 9.7 0.00 0.00 0.00 82 1012.7
20260831213109 17 225 1.6 8.0 0.00 0.00 0.00 80 1012.5
20260831212114 17 216 3.2 9.7 0.00 0.00 0.00 80 1012.5
20260831211025 17 222 1.6 8.0 0.00 0.00 0.00 80 1012.4
20260831210110 17 188 3.2 11.3 0.00 0.00 0.00 80 1012.3
20260831205115 17 235 3.2 9.7 0.00 0.00 0.00 79 1012.4
20260831204033 17 183 4.8 9.7 0.00 0.00 0.00 79 1012.2
20260831203100 17 185 4.8 8.0 0.00 0.00 0.00 80 1012.2
20260831202142 16 221 1.6 6.4 0.00 0.00 0.00 82 1012.4
20260831201041 16 241 0.0 3.2 0.00 0.00 0.00 82 1012.5
20260831200104 16 0.0 3.2 0.00 0.00 0.00 82 1012.6
20260831195129 16 0.0 0.0 0.00 0.00 0.00 83 1012.5
20260831194040 16 197 0.0 1.6 0.00 0.00 0.00 83 1012.6
20260831193125 16 0.0 0.0 0.00 0.00 0.00 82 1012.4
20260831192025 16 11 0.0 3.2 0.00 0.00 0.00 80 1012.5
20260831191050 17 0.0 1.6 0.00 0.00 0.00 79 1012.5
20260831190113 17 47 0.0 3.2 0.00 0.00 0.00 78 1012.6
20260831185053 17 0.0 3.2 0.00 0.00 0.00 78 1012.6
20260831184117 17 156 1.6 4.8 0.00 0.00 0.00 77 1012.5
20260831183114 17 212 3.2 6.4 0.00 0.00 0.00 75 1012.5
20260831182033 18 181 3.2 6.4 0.00 0.00 0.00 74 1012.4
20260831181057 18 242 0.0 3.2 0.00 0.00 0.00 73 1012.3
20260831180122 18 110 1.6 4.8 0.00 0.00 0.00 73 1012.0
20260831175103 18 352 0.0 4.8 0.00 0.00 0.00 72 1012.2
20260831174105 19 61 1.6 3.2 0.00 0.00 0.00 71 1012.1
20260831173027 20 52 1.6 3.2 0.00 0.00 0.00 69 1012.1
20260831172041 20 76 0.0 3.2 0.00 0.00 0.00 65 1012.2
20260831171105 21 0.0 3.2 0.00 0.00 0.00 63 1012.3
20260831170026 21 190 3.2 8.0 0.00 0.00 0.00 63 1012.4
20260831165050 21 195 1.6 6.4 0.00 0.00 0.00 64 1012.4
20260831164115 21 177 1.6 4.8 0.00 0.00 0.00 64 1012.4
20260831163045 21 218 1.6 6.4 0.00 0.00 0.00 63 1012.5
20260831162025 22 173 3.2 8.0 0.00 0.00 0.00 61 1012.6
20260831161049 22 233 3.2 8.0 0.00 0.00 0.00 61 1012.5
20260831160113 22 221 1.6 12.9 0.00 0.00 0.00 58 1012.5
20260831155033 22 233 4.8 9.7 0.00 0.00 0.00 60 1012.4
20260831154057 22 232 4.8 14.5 0.00 0.00 0.00 60 1012.5
20260831153121 21 234 3.2 9.7 0.00 0.00 0.00 62 1012.6
20260831152041 21 239 4.8 11.3 0.00 0.00 0.00 62 1012.7
20260831151125 21 225 4.8 11.3 0.00 0.00 0.00 61 1012.6
20260831150027 21 218 4.8 12.9 0.00 0.00 0.00 61 1012.6
20260831145111 22 226 4.8 9.7 0.00 0.00 0.00 61 1012.6
20260831144114 21 236 4.8 11.3 0.00 0.00 0.00 63 1012.7
20260831143033 21 240 6.4 12.9 0.00 0.00 0.00 63 1012.8
20260831142059 21 247 6.4 14.5 0.00 0.00 0.00 63 1012.8
20260831141121 21 240 9.7 17.7 0.00 0.00 0.00 63 1012.8
20260831140041 21 271 3.2 12.9 0.00 0.00 0.00 64 1012.7
20260831135105 21 232 6.4 12.9 0.00 0.00 0.00 65 1012.9
20260831134024 22 262 3.2 11.3 0.00 0.00 0.00 63 1013.0
20260831133049 22 249 4.8 9.7 0.00 0.00 0.00 64 1013.0
20260831132113 21 241 8.0 17.7 0.00 0.00 0.00 63 1013.0
20260831131033 22 250 6.4 14.5 0.00 0.00 0.00 62 1013.1
20260831130058 22 236 6.4 19.3 0.00 0.00 0.00 61 1013.0
20260831125126 22 224 8.0 17.7 0.00 0.00 0.00 61 1013.1
20260831124046 21 202 3.2 11.3 0.00 0.00 0.00 62 1013.0
20260831123043 21 216 4.8 14.5 0.00 0.00 0.00 63 1013.1
20260831122107 21 234 6.4 11.3 0.00 0.00 0.00 65 1013.2
20260831121025 21 237 6.4 12.9 0.00 0.00 0.00 64 1013.2
20260831120129 21 245 6.4 16.1 0.00 0.00 0.00 64 1013.2
20260831115113 21 209 6.4 16.1 0.00 0.00 0.00 65 1013.3
20260831114032 21 226 3.2 12.9 0.00 0.00 0.00 67 1013.3
20260831113057 20 224 8.0 19.3 0.00 0.00 0.00 69 1013.4
20260831112120 21 211 1.6 12.9 0.00 0.00 0.00 68 1013.1
20260831111043 20 227 3.2 11.3 0.00 0.00 0.00 69 1013.3
20260831110105 20 235 4.8 14.5 0.00 0.00 0.00 70 1013.3
20260831105046 20 224 4.8 12.9 0.00 0.00 0.00 69 1013.3
20260831104049 21 187 6.4 17.7 0.00 0.00 0.00 68 1013.4
20260831103113 20 249 3.2 11.3 0.00 0.00 0.00 70 1013.3
20260831102033 20 210 6.4 12.9 0.00 0.00 0.00 71 1013.5
20260831101057 20 222 6.4 16.1 0.00 0.00 0.00 71 1013.5
20260831100018 20 228 6.4 12.9 0.00 0.00 0.00 72 1013.4
20260831095035 20 236 1.6 8.0 0.00 0.00 0.00 72 1013.5
20260831094057 20 227 4.8 9.7 0.00 0.00 0.00 71 1013.7
20260831093038 20 236 3.2 9.7 0.00 0.00 0.00 72 1013.5
20260831092042 20 235 3.2 11.3 0.00 0.00 0.00 72 1013.7
20260831091107 20 233 4.8 8.0 0.00 0.00 0.00 72 1013.6
20260831090025 19 234 4.8 14.5 0.00 0.00 0.00 71 1013.7
20260831085050 20 241 3.2 11.3 0.00 0.00 0.00 71 1013.7
20260831084112 20 246 3.2 14.5 0.00 0.00 0.00 70 1013.7
20260831083053 20 224 4.8 14.5 0.00 0.00 0.00 69 1013.7
20260831082057 20 201 3.2 6.4 0.00 0.00 0.00 68 1013.7
20260831081114 19 215 3.2 9.7 0.00 0.00 0.00 71 1013.7
20260831080034 19 211 3.2 9.7 0.00 0.00 0.00 70 1013.6
20260831075058 18 256 1.6 8.0 0.00 0.00 0.00 71 1013.8
20260831074017 18 244 3.2 11.3 0.00 0.00 0.00 71 1013.8
20260831073041 18 222 3.2 11.3 0.00 0.00 0.00 71 1013.8
20260831072106 18 230 4.8 14.5 0.00 0.00 0.00 72 1013.8
20260831071025 18 216 8.0 16.1 0.00 0.00 0.00 70 1013.8
20260831070042 19 232 8.0 17.7 0.00 0.00 0.00 71 1013.6
20260831065107 18 220 8.0 14.5 0.00 0.00 0.00 72 1013.6
20260831064024 18 225 8.0 11.3 0.00 0.00 0.00 74 1013.6
20260831063037 18 223 8.0 14.5 0.00 0.00 0.00 76 1013.7
20260831062119 17 226 9.7 16.1 0.00 0.00 0.00 78 1013.8
20260831061018 18 246 4.8 12.9 0.00 0.00 0.00 78 1013.8
20260831060042 17 225 9.7 16.1 0.00 0.00 0.00 79 1013.6
20260831055107 17 238 3.2 9.7 0.00 0.00 0.00 79 1013.5
20260831054047 17 226 6.4 12.9 0.00 0.00 0.00 80 1013.5
20260831053111 17 210 1.6 4.8 0.00 0.00 0.00 81 1013.5
20260831052114 16 232 4.8 8.0 0.00 0.00 0.00 84 1013.6
20260831051036 16 237 3.2 9.7 0.00 0.00 0.00 84 1013.7
20260831050057 16 221 3.2 8.0 0.00 0.00 0.00 85 1013.5
20260831045018 16 239 1.6 4.8 0.00 0.00 0.00 86 1013.5
20260831044047 16 213 3.2 8.0 0.00 0.00 0.00 86 1013.5
20260831043058 16 213 3.2 8.0 0.00 0.00 0.00 86 1013.6
20260831042018 16 224 3.2 6.4 0.00 0.00 0.00 87 1013.5
20260831041104 16 210 3.2 9.7 0.00 0.00 0.00 87 1013.6
20260831040106 16 201 3.2 8.0 0.00 0.00 0.00 86 1013.6
20260831035027 16 212 3.2 8.0 0.00 0.00 0.00 86 1013.6
20260831034130 16 189 1.6 6.4 0.00 0.00 0.00 86 1013.6
20260831033106 16 208 1.6 6.4 0.00 0.00 0.00 86 1013.5
20260831032023 16 173 4.8 8.0 0.00 0.00 0.00 86 1013.7
20260831031102 16 178 3.2 8.0 0.00 0.00 0.00 85 1013.5
20260831030106 16 177 1.6 8.0 0.00 0.00 0.00 85 1013.6
20260831025028 16 195 3.2 8.0 0.00 0.00 0.00 85 1013.6
20260831024050 16 219 3.2 9.7 0.00 0.00 0.00 84 1013.6
20260831023114 16 211 4.8 8.0 0.00 0.00 0.00 84 1013.4
20260831022028 16 230 4.8 9.7 0.00 0.00 0.00 84 1013.6
20260831021045 16 252 4.8 9.7 0.00 0.00 0.00 83 1013.5
20260831020106 16 246 3.2 9.7 0.00 0.00 0.00 83 1013.4
20260831015029 16 244 3.2 8.0 0.00 0.00 0.00 83 1013.4
20260831014044 16 247 6.4 11.3 0.00 0.00 0.00 83 1013.4
20260831013107 17 239 6.4 11.3 0.00 0.00 0.00 82 1013.3
20260831012026 17 254 4.8 9.7 0.00 0.00 0.00 81 1013.3
20260831011049 17 241 6.4 19.3 0.00 0.00 0.00 80 1013.3
20260831010113 17 240 6.4 11.3 0.00 0.00 0.00 80 1013.4
20260831005033 17 254 6.4 14.5 0.00 0.00 0.00 80 1013.4
20260831004117 17 240 8.0 16.1 0.00 0.00 0.00 80 1013.5
20260831003038 17 239 6.4 12.9 0.00 0.00 0.00 80 1013.4
20260831002042 17 246 4.8 12.9 0.00 0.00 0.00 80 1013.3
20260831001126 17 226 8.0 11.3 0.00 0.00 0.00 80 1013.4
20260831000026 17 234 4.8 12.9 0.00 0.00 0.00 79 1013.4
20260830235049 17 245 4.8 14.5 0.00 0.00 0.00 79 1013.4
20260830234113 17 228 8.0 19.3 0.00 0.00 0.00 78 1013.5
20260830233033 17 242 4.8 12.9 0.00 0.00 0.00 78 1013.3
20260830232117 17 238 6.4 12.9 0.00 0.00 0.00 78 1013.2